EW2672 Weather Reports


Display with metric or nautical units.
time (UTC)temp
F
wind
direction
speed
MPH
gust
MPH
rain 1hr
in
rain 24hr
in
rain mn
in
humidity
%
barometer
mb
20260904044446 80 144 1.0 7.0 0.00 0.00 0.00 79 1013.6
20260904043944 80 147 1.0 8.0 0.00 0.00 0.00 79 1013.4
20260904043442 80 138 1.0 8.0 0.00 0.00 0.00 79 1013.4
20260904042940 80 159 1.0 7.0 0.00 0.00 0.00 78 1013.5
20260904042436 80 150 1.0 6.0 0.00 0.00 0.00 78 1013.6
20260904041934 81 149 1.0 3.0 0.00 0.00 0.00 78 1013.5
20260904041432 81 149 1.0 3.0 0.00 0.00 0.00 77 1013.6
20260904040930 81 149 1.0 6.0 0.00 0.00 0.00 77 1013.5
20260904040426 81 0.0 6.0 0.00 0.00 0.00 77 1013.6
20260904035924 81 0.0 2.0 0.00 0.00 0.00 76 1013.6
20260904035422 81 0.0 2.0 0.00 0.00 0.00 76 1013.5
20260904034920 81 0.0 1.0 0.00 0.00 0.00 75 1013.4
20260904034416 81 0.0 6.0 0.00 0.00 0.00 75 1013.4
20260904033914 81 148 1.0 6.0 0.00 0.00 0.00 75 1013.4
20260904033412 81 0.0 5.0 0.00 0.00 0.00 75 1013.4
20260904032908 81 147 1.0 5.0 0.00 0.00 0.00 74 1013.5
20260904032406 81 146 1.0 5.0 0.00 0.00 0.00 74 1013.3
20260904031904 81 0.0 4.0 0.00 0.00 0.00 74 1013.3
20260904031400 82 147 1.0 4.0 0.00 0.00 0.00 74 1013.3
20260904030858 82 0.0 6.0 0.00 0.00 0.00 74 1013.2
20260904030356 82 0.0 7.0 0.00 0.00 0.00 73 1013.2
20260904025854 82 162 1.0 7.0 0.00 0.00 0.00 73 1013.2
20260904025350 82 0.0 5.0 0.00 0.00 0.00 72 1013.1
20260904024848 82 150 1.0 7.0 0.00 0.00 0.00 72 1013.1
20260904024346 82 149 1.0 7.0 0.00 0.00 0.00 72 1013.1
20260904023844 82 153 1.0 7.0 0.00 0.00 0.00 71 1012.9
20260904023340 82 161 1.0 6.0 0.00 0.00 0.00 71 1013.0
20260904022838 82 1.0 5.0 0.00 0.00 0.00 71 1012.9
20260904022336 82 160 1.0 5.0 0.00 0.00 0.00 70 1012.9
20260904021834 83 157 1.0 3.0 0.00 0.00 0.00 70 1012.9
20260904021330 83 0.0 5.0 0.00 0.00 0.00 69 1012.8
20260904020828 83 0.0 5.0 0.00 0.00 0.00 69 1012.8
20260904020326 83 0.0 2.0 0.00 0.00 0.00 69 1012.6
20260904015824 83 0.0 2.0 0.00 0.00 0.00 69 1012.6
20260904015320 83 0.0 2.0 0.00 0.00 0.00 68 1012.4
20260904014818 83 0.0 3.0 0.00 0.00 0.00 68 1012.4
20260904014316 83 0.0 3.0 0.00 0.00 0.00 68 1012.4
20260904013813 83 1.0 7.0 0.00 0.00 0.00 68 1012.4
20260904013247 83 158 1.0 7.0 0.00 0.00 0.00 68 1012.4
20260904012745 84 164 1.0 7.0 0.00 0.00 0.00 68 1012.4
20260904012243 84 162 1.0 7.0 0.00 0.00 0.00 68 1012.5
20260904011741 84 164 1.0 9.0 0.00 0.00 0.00 67 1012.3
20260904011237 84 179 2.0 9.0 0.00 0.00 0.00 67 1012.2
20260904010735 84 0.0 8.0 0.00 0.00 0.00 67 1012.2
20260904010233 84 164 1.0 7.0 0.00 0.00 0.00 67 1012.2
20260904005731 84 166 1.0 8.0 0.00 0.00 0.00 67 1012.1
20260904005227 85 140 2.0 8.0 0.00 0.00 0.00 67 1012.0
20260904004725 85 155 1.0 8.0 0.00 0.00 0.00 67 1012.0
20260904004223 85 0.0 7.0 0.00 0.00 0.00 66 1012.0
20260904003721 86 1.0 7.0 0.00 0.00 0.00 66 1011.9
20260904003217 86 0.0 7.0 0.00 0.00 0.00 65 1012.0
20260904002715 86 0.0 7.0 0.00 0.00 0.00 65 1012.0
20260904002213 87 0.0 2.0 0.00 0.00 0.00 65 1012.0
20260904001711 87 0.0 11.0 0.00 0.00 0.00 64 1011.9
20260904001207 87 144 1.0 11.0 0.00 0.00 0.00 64 1011.9
20260904000705 87 156 1.0 9.0 0.00 0.00 0.00 63 1011.9
20260904000204 88 142 1.0 10.0 0.00 0.00 0.00 63 1011.9
20260903235659 88 162 1.0 11.0 0.00 0.00 0.00 63 1011.9
20260903235157 88 171 1.0 9.0 0.00 0.00 0.00 63 1011.9
20260903234655 88 154 1.0 9.0 0.00 0.00 0.00 63 1011.8
20260903234151 89 190 2.0 8.0 0.00 0.00 0.00 63 1011.8
20260903233649 89 145 1.0 8.0 0.00 0.00 0.00 62 1011.7
20260903233147 90 164 1.0 8.0 0.00 0.00 0.00 62 1011.7
20260903232645 90 175 2.0 10.0 0.00 0.00 0.00 61 1011.6
20260903232141 90 168 1.0 10.0 0.00 0.00 0.00 61 1011.5
20260903231639 91 139 1.0 12.0 0.00 0.00 0.00 62 1011.5
20260903231137 91 182 2.0 12.0 0.00 0.00 0.00 62 1011.5
20260903230635 93 135 1.0 8.0 0.00 0.00 0.00 61 1011.4
20260903230131 93 148 2.0 10.0 0.00 0.00 0.00 61 1011.4
20260903225629 93 136 2.0 10.0 0.00 0.00 0.00 60 1011.2
20260903225127 93 147 1.0 8.0 0.00 0.00 0.00 60 1011.3
20260903224625 93 150 2.0 8.0 0.00 0.00 0.00 59 1011.1
20260903224121 94 161 2.0 12.0 0.00 0.00 0.00 57 1011.2
20260903223619 94 161 2.0 12.0 0.00 0.00 0.00 57 1011.1
20260903223117 94 123 1.0 10.0 0.00 0.00 0.00 56 1011.2
20260903222615 94 152 2.0 10.0 0.00 0.00 0.00 56 1011.1
20260903222111 94 130 2.0 9.0 0.00 0.00 0.00 56 1011.2
20260903221609 95 158 2.0 11.0 0.00 0.00 0.00 55 1011.1
20260903221107 96 152 2.0 11.0 0.00 0.00 0.00 53 1011.1
20260903220605 96 145 2.0 10.0 0.00 0.00 0.00 52 1011.1
20260903220101 95 142 2.0 14.0 0.00 0.00 0.00 53 1011.1
20260903215559 95 157 2.0 14.0 0.00 0.00 0.00 53 1011.0
20260903215057 95 166 2.0 8.0 0.00 0.00 0.00 53 1011.1
20260903214555 95 154 3.0 11.0 0.00 0.00 0.00 53 1011.0
20260903214051 95 136 3.0 11.0 0.00 0.00 0.00 52 1011.0
20260903213549 95 160 1.0 9.0 0.00 0.00 0.00 53 1011.2
20260903213047 96 158 1.0 9.0 0.00 0.00 0.00 52 1011.2
20260903212545 96 158 2.0 8.0 0.00 0.00 0.00 51 1011.2
20260903212041 96 145 1.0 11.0 0.00 0.00 0.00 53 1011.3
20260903211539 96 147 2.0 11.0 0.00 0.00 0.00 52 1011.3
20260903211035 96 140 2.0 5.0 0.00 0.00 0.00 52 1011.3
20260903210533 96 140 2.0 8.0 0.00 0.00 0.00 52 1011.3
20260903210031 96 141 1.0 12.0 0.00 0.00 0.00 52 1011.4
20260903205529 96 143 3.0 12.0 0.00 0.00 0.00 51 1011.4
20260903205025 96 154 3.0 8.0 0.00 0.00 0.00 51 1011.4
20260903204523 97 168 2.0 7.0 0.00 0.00 0.00 50 1011.5
20260903204021 97 163 2.0 8.0 0.00 0.00 0.00 50 1011.6
20260903203519 97 162 1.0 7.0 0.00 0.00 0.00 50 1011.7
20260903203015 97 162 3.0 7.0 0.00 0.00 0.00 50 1011.9
20260903202513 98 164 1.0 3.0 0.00 0.00 0.00 48 1012.0
20260903202011 98 1.0 4.0 0.00 0.00 0.00 48 1012.1
20260903201509 98 171 1.0 5.0 0.00 0.00 0.00 48 1012.1
20260903201005 98 171 1.0 6.0 0.00 0.00 0.00 49 1012.2
20260903200503 98 171 1.0 4.0 0.00 0.00 0.00 48 1012.3
20260903200001 98 171 1.0 4.0 0.00 0.00 0.00 49 1012.3
20260903195459 96 0.0 5.0 0.00 0.00 0.00 51 1012.3
20260903194955 96 0.0 5.0 0.00 0.00 0.00 50 1012.3
20260903194453 95 171 1.0 3.0 0.00 0.00 0.00 51 1012.4
20260903193951 95 0.0 2.0 0.00 0.00 0.00 52 1012.4
20260903193449 94 0.0 4.0 0.00 0.00 0.00 51 1012.5
20260903192945 94 0.0 5.0 0.00 0.00 0.00 52 1012.7
20260903192443 94 171 1.0 5.0 0.00 0.00 0.00 52 1012.7
20260903191941 94 172 1.0 4.0 0.00 0.00 0.00 53 1012.8
20260903191438 93 172 1.0 4.0 0.00 0.00 0.00 54 1012.9
20260903190934 93 0.0 5.0 0.00 0.00 0.00 54 1012.9
20260903190432 93 0.0 3.0 0.00 0.00 0.00 55 1013.0
20260903185930 93 171 1.0 5.0 0.00 0.00 0.00 55 1013.2
20260903185428 93 0.0 6.0 0.00 0.00 0.00 56 1013.2
20260903184925 93 171 2.0 6.0 0.00 0.00 0.00 56 1013.3
20260903184422 93 0.0 4.0 0.00 0.00 0.00 56 1013.4
20260903183918 93 0.0 4.0 0.00 0.00 0.00 56 1013.5
20260903183416 92 0.0 4.0 0.00 0.00 0.00 56 1013.5
20260903182914 92 186 1.0 4.0 0.00 0.00 0.00 56 1013.6
20260903182412 92 186 2.0 4.0 0.00 0.00 0.00 57 1013.7
20260903181908 92 0.0 6.0 0.00 0.00 0.00 57 1013.7
20260903181406 92 0.0 6.0 0.00 0.00 0.00 57 1013.7
20260903180904 92 1.0 4.0 0.00 0.00 0.00 57 1013.8
20260903180402 92 1.0 5.0 0.00 0.00 0.00 57 1013.9
20260903175858 92 186 1.0 5.0 0.00 0.00 0.00 57 1014.0
20260903175356 92 186 1.0 4.0 0.00 0.00 0.00 58 1014.1
20260903174854 91 0.0 2.0 0.00 0.00 0.00 58 1014.1
20260903174352 91 0.0 4.0 0.00 0.00 0.00 58 1014.1
20260903173848 91 0.0 4.0 0.00 0.00 0.00 60 1014.2
20260903173346 90 0.0 3.0 0.00 0.00 0.00 60 1014.3
20260903172844 90 1.0 3.0 0.00 0.00 0.00 60 1014.4
20260903172342 90 186 1.0 3.0 0.00 0.00 0.00 60 1014.4
20260903171838 90 0.0 4.0 0.00 0.00 0.00 60 1014.5
20260903171336 90 0.0 4.0 0.00 0.00 0.00 61 1014.6
20260903170834 89 0.0 5.0 0.00 0.00 0.00 62 1014.6
20260903170332 89 186 1.0 5.0 0.00 0.00 0.00 62 1014.5
20260903165828 89 0.0 4.0 0.00 0.00 0.00 63 1014.5
20260903165326 88 186 1.0 4.0 0.00 0.00 0.00 63 1014.4
20260903164824 88 1.0 5.0 0.00 0.00 0.00 65 1014.4
20260903164322 88 186 1.0 5.0 0.00 0.00 0.00 65 1014.3
20260903163818 88 1.0 5.0 0.00 0.00 0.00 66 1014.3
20260903163316 88 0.0 5.0 0.00 0.00 0.00 66 1014.3
20260903162814 88 186 1.0 6.0 0.00 0.00 0.00 65 1014.3
20260903162312 87 186 1.0 6.0 0.00 0.00 0.00 66 1014.3
20260903161808 87 187 1.0 6.0 0.00 0.00 0.00 66 1014.3
20260903161306 87 180 1.0 5.0 0.00 0.00 0.00 67 1014.3
20260903160802 86 180 1.0 4.0 0.00 0.00 0.00 68 1014.2
20260903160300 86 180 1.0 7.0 0.00 0.00 0.00 68 1014.2
20260903155758 86 180 2.0 7.0 0.00 0.00 0.00 67 1014.2
20260903155256 85 173 2.0 9.0 0.00 0.00 0.00 68 1014.2
20260903154752 85 193 3.0 9.0 0.00 0.00 0.00 68 1014.2
20260903154250 85 194 2.0 6.0 0.00 0.00 0.00 69 1014.2
20260903153748 85 193 1.0 6.0 0.00 0.00 0.00 69 1014.2
20260903153246 85 194 1.0 8.0 0.00 0.00 0.00 71 1014.1
20260903152742 85 1.0 8.0 0.00 0.00 0.00 71 1014.1
20260903152240 85 217 2.0 8.0 0.00 0.00 0.00 72 1014.1
20260903151738 84 190 2.0 6.0 0.00 0.00 0.00 73 1014.0
20260903151236 84 182 2.0 6.0 0.00 0.00 0.00 73 1014.0
20260903150732 84 182 1.0 8.0 0.00 0.00 0.00 74 1014.1
20260903150230 84 181 3.0 8.0 0.00 0.00 0.00 74 1014.1
20260903145728 84 195 1.0 5.0 0.00 0.00 0.00 75 1014.1
20260903145226 83 194 1.0 5.0 0.00 0.00 0.00 76 1014.0
20260903144722 83 195 1.0 5.0 0.00 0.00 0.00 76 1014.1
20260903144220 83 196 2.0 4.0 0.00 0.00 0.00 76 1014.1
20260903143718 83 196 1.0 5.0 0.00 0.00 0.00 77 1014.1
20260903143216 82 195 2.0 6.0 0.00 0.00 0.00 78 1014.1
20260903142712 82 194 1.0 6.0 0.00 0.00 0.00 78 1014.1
20260903142210 82 196 1.0 6.0 0.00 0.00 0.00 79 1014.1
20260903141708 82 199 2.0 6.0 0.00 0.00 0.00 80 1014.0
20260903141206 81 202 1.0 8.0 0.00 0.00 0.00 80 1014.0
20260903140702 81 200 2.0 8.0 0.00 0.00 0.00 81 1014.0
20260903140200 81 190 2.0 6.0 0.00 0.00 0.00 82 1014.1
20260903135658 81 190 1.0 8.0 0.00 0.00 0.00 82 1014.1
20260903135156 81 179 1.0 6.0 0.00 0.00 0.00 83 1014.0
20260903134652 80 180 2.0 7.0 0.00 0.00 0.00 83 1014.1
20260903134150 80 178 3.0 7.0 0.00 0.00 0.00 83 1014.1
20260903133648 80 184 1.0 6.0 0.00 0.00 0.00 83 1014.2
20260903133146 80 187 1.0 6.0 0.00 0.00 0.00 84 1014.2
20260903132642 80 188 1.0 7.0 0.00 0.00 0.00 84 1014.1
20260903132140 80 169 2.0 7.0 0.00 0.00 0.00 84 1014.2
20260903131636 80 169 1.0 3.0 0.00 0.00 0.00 84 1014.2
20260903131134 80 0.0 3.0 0.00 0.00 0.00 85 1014.2
20260903130632 80 0.0 6.0 0.00 0.00 0.00 85 1014.2
20260903130130 80 169 1.0 6.0 0.00 0.00 0.00 85 1014.2
20260903125626 80 169 1.0 5.0 0.00 0.00 0.00 85 1014.1
20260903125124 79 0.0 5.0 0.00 0.00 0.00 85 1014.1
20260903124622 79 169 1.0 5.0 0.00 0.00 0.00 85 1014.0
20260903124120 79 0.0 5.0 0.00 0.00 0.00 86 1014.0
20260903123616 79 169 1.0 6.0 0.00 0.00 0.00 86 1014.0
20260903123114 79 169 2.0 6.0 0.00 0.00 0.00 86 1013.9
20260903122612 79 0.0 3.0 0.00 0.00 0.00 86 1013.9
20260903122110 79 168 1.0 4.0 0.00 0.00 0.00 86 1013.8
20260903121606 79 0.0 3.0 0.00 0.00 0.00 86 1013.8
20260903121104 79 0.0 6.0 0.00 0.00 0.00 85 1013.8
20260903120602 79 168 1.0 7.0 0.00 0.00 0.00 85 1013.8
20260903120100 79 168 1.0 7.0 0.00 0.00 0.00 85 1013.7
20260903115556 79 168 1.0 5.0 0.00 0.00 0.00 85 1013.6
20260903115054 79 168 1.0 6.0 0.00 0.00 0.00 85 1013.6
20260903114552 79 167 2.0 7.0 0.00 0.00 0.00 85 1013.6
20260903114050 79 167 2.0 7.0 0.00 0.00 0.00 85 1013.6
20260903113546 79 167 2.0 7.0 0.00 0.00 0.00 85 1013.6
20260903113044 79 167 2.0 5.0 0.00 0.00 0.00 85 1013.7
20260903112542 79 0.0 6.0 0.00 0.00 0.00 86 1013.7
20260903112040 79 167 2.0 6.0 0.00 0.00 0.00 86 1013.7
20260903111536 79 167 1.0 6.0 0.00 0.00 0.00 86 1013.7
20260903111034 79 0.0 6.0 0.00 0.00 0.00 86 1013.7
20260903110532 79 167 1.0 5.0 0.00 0.00 0.00 86 1013.6
20260903110030 79 167 1.0 8.0 0.00 0.00 0.00 86 1013.5
20260903105526 79 169 2.0 8.0 0.00 0.00 0.00 86 1013.5
20260903105024 79 0.0 7.0 0.00 0.00 0.00 86 1013.4
20260903104520 79 166 1.0 6.0 0.00 0.00 0.00 86 1013.4
20260903104018 79 166 1.0 5.0 0.00 0.00 0.00 86 1013.3
20260903103516 79 166 1.0 9.0 0.00 0.00 0.00 86 1013.2
20260903103014 79 166 1.0 9.0 0.00 0.00 0.00 86 1013.2
20260903102510 79 169 1.0 7.0 0.00 0.00 0.00 85 1013.2
20260903102008 79 169 1.0 7.0 0.00 0.00 0.00 85 1013.2
20260903101506 79 167 1.0 8.0 0.00 0.00 0.00 85 1013.2
20260903101004 79 167 1.0 8.0 0.00 0.00 0.00 85 1013.2
20260903100500 79 167 1.0 5.0 0.00 0.00 0.00 85 1013.2
20260903095958 79 1.0 5.0 0.00 0.00 0.00 85 1013.1
20260903095456 79 0.0 6.0 0.00 0.00 0.00 85 1013.1
20260903094954 79 166 2.0 7.0 0.00 0.00 0.00 85 1013.2
20260903094450 79 167 3.0 7.0 0.00 0.00 0.00 85 1013.2
20260903093948 79 166 1.0 7.0 0.00 0.00 0.00 84 1013.2
20260903093446 79 165 1.0 5.0 0.00 0.00 0.00 84 1013.3
20260903092944 79 165 1.0 5.0 0.00 0.00 0.00 84 1013.3
20260903092440 79 1.0 3.0 0.00 0.00 0.00 84 1013.4
20260903091938 79 165 1.0 3.0 0.00 0.00 0.00 84 1013.4
20260903091436 79 165 1.0 5.0 0.00 0.00 0.00 84 1013.6
20260903090934 80 165 1.0 5.0 0.00 0.00 0.00 84 1013.6
20260903090430 80 0.0 5.0 0.00 0.00 0.00 83 1013.5
20260903085928 80 168 2.0 5.0 0.00 0.00 0.00 83 1013.4
20260903085426 80 167 2.0 5.0 0.00 0.00 0.00 83 1013.5
20260903084924 80 169 1.0 4.0 0.00 0.00 0.00 83 1013.5
20260903084420 80 0.0 3.0 0.00 0.00 0.00 83 1013.6
20260903083918 80 169 1.0 3.0 0.00 0.00 0.00 82 1013.6
20260903083416 80 0.0 5.0 0.00 0.00 0.00 82 1013.6
20260903082913 80 0.0 6.0 0.00 0.00 0.00 82 1013.5
20260903082410 80 1.0 6.0 0.00 0.00 0.00 82 1013.6
20260903081907 80 169 1.0 7.0 0.00 0.00 0.00 81 1013.5
20260903081403 80 169 1.0 8.0 0.00 0.00 0.00 81 1013.5
20260903080901 80 166 3.0 9.0 0.00 0.00 0.00 81 1013.5
20260903080359 80 165 2.0 7.0 0.00 0.00 0.00 80 1013.5
20260903075857 80 165 1.0 7.0 0.00 0.00 0.00 80 1013.6
20260903075353 80 165 1.0 6.0 0.00 0.00 0.00 79 1013.5
20260903074851 80 164 2.0 6.0 0.00 0.00 0.00 79 1013.6
20260903074349 80 164 1.0 6.0 0.00 0.00 0.00 79 1013.6
20260903073847 80 164 1.0 6.0 0.00 0.00 0.00 79 1013.6
20260903073343 80 164 1.0 6.0 0.00 0.00 0.00 79 1013.6
20260903072841 80 0.0 7.0 0.00 0.00 0.00 78 1013.6
20260903072339 80 163 1.0 7.0 0.00 0.00 0.00 78 1013.6
20260903071837 80 0.0 0.0 0.00 0.00 0.00 78 1013.7
20260903071333 80 0.0 3.0 0.00 0.00 0.00 78 1013.7
20260903070831 80 0.0 3.0 0.00 0.00 0.00 78 1013.8
20260903070329 80 0.0 2.0 0.00 0.00 0.00 78 1013.8
20260903065827 80 0.0 3.0 0.00 0.00 0.00 78 1013.8
20260903065323 80 0.0 3.0 0.00 0.00 0.00 78 1013.8
20260903064821 80 0.0 1.0 0.00 0.00 0.00 79 1013.8
20260903064319 80 0.0 2.0 0.00 0.00 0.00 79 1013.9
20260903063817 80 0.0 2.0 0.00 0.00 0.00 79 1014.0
20260903063314 80 0.0 1.0 0.00 0.00 0.00 79 1014.0
20260903062811 80 0.0 1.0 0.00 0.00 0.00 79 1014.1
20260903062309 80 0.0 0.0 0.00 0.00 0.00 79 1014.1
20260903061807 80 0.0 0.0 0.00 0.00 0.00 79 1014.1
20260903061303 80 0.0 0.0 0.00 0.00 0.00 79 1014.1
20260903060801 80 0.0 0.0 0.00 0.00 0.00 79 1014.1
20260903060259 80 0.0 0.0 0.00 0.00 0.00 79 1014.1
20260903055757 80 0.0 0.0 0.00 0.00 0.00 79 1014.1
20260903055253 80 0.0 2.0 0.00 0.00 0.00 78 1014.1
20260903054751 80 0.0 2.0 0.00 0.00 0.00 78 1014.1
20260903054249 80 0.0 3.0 0.00 0.00 0.00 78 1014.2
20260903053745 80 0.0 3.0 0.00 0.00 0.00 77 1014.1
20260903053243 80 0.0 5.0 0.00 0.00 0.00 77 1014.1
20260903052741 81 0.0 2.0 0.00 0.00 0.00 76 1014.1
20260903052239 81 163 1.0 3.0 0.00 0.00 0.00 76 1014.1
20260903051735 81 0.0 7.0 0.00 0.00 0.00 75 1014.1
20260903051233 81 1.0 7.0 0.00 0.00 0.00 75 1014.1
20260903050731 81 0.0 5.0 0.00 0.00 0.00 74 1014.1
20260903050227 81 0.0 5.0 0.00 0.00 0.00 74 1014.0
20260903045725 82 0.0 3.0 0.00 0.00 0.00 73 1014.0
20260903045223 82 1.0 3.0 0.00 0.00 0.00 72 1014.0
20260903044721 82 0.0 3.0 0.00 0.00 0.00 72 1014.0